OBJECT A, 65815

Orbit data source: Space-Track

You're viewing an Uncataloged Satellite

Recently launched and/or uncataloged satellites may have evolving metadata. Metadata may include but not limited to: Owner, Maufacturer, Bus, Motor, and Mission.

OBJECT A, 65815 is a satellite owned by CNMSC (CN) in SSO that was launched on Fri, 26 Sep 2025 UTC via a CHANG ZHENG 4C launch vehicle from the Jiuquan Satellite Launch Center, China (JSC). Unknown objects in Earth's orbit typically refer to objects detected orbiting the Earth but have not yet been identified or cataloged. These objects could be anything from previously untracked satellites, spent rocket stages, debris from satellite collisions, or even natural meteoroids temporarily captured by Earth's gravity.

Loading next visibility...
Identifier
65815, 2025-219A
Orbit
SSO
Country
Flag of CNCN / PRC
Related business
Manufacturer
SISE
Mission
Operational Civil Weather
Bus & Motor
FY-3, Unknown motor
Mass
2,450 kg wet, 2,250 kg dry
Launch date (UTC)
2025-09-26 (9 months ago)
Launch vehicle
CHANG ZHENG 4C
Launch site
Jiuquan Satellite Launch Center, China (JSC)
Object type
Unknown
Shape & HBR
Box + 2 Pan, 1.1 m
Radar Cross Section
15.104 m², Large (>1 m²)

Expand to show TLE details & history
Last TLE update: 10 hours ago

TLE from 10 hours ago
0 OBJECT A
1 65815U 25219A   26171.42343481  .00000033  00000-0  36111-4 0  9992
2 65815  98.6768 112.1297 0001572  74.5092 285.6258 14.19920896 37843
Epoch: 2026-06-20T10:09Z
TLE epoch observation values (Epoch: 2026-06-20T10:09:44.767Z)
Latitude
-0.00003°
Longitude
51.05491°
Altitude
828.231 km
Speed
7.439 km/s
True Right ascension
07h 28m 31s
True Declination
0° 00' 00"
Sunlit
Object was in daylight at epoch
Visualization orbit readout
Latitude
Unknown
Longitude
Unknown
Altitude
Unknown
Speed
Unknown
Apparent Right ascension
Unknown
Apparent Declination
Unknown
Sunlit
N/A
Visualization observer readout
Local Sidereal Time
07:13:24
Azimuth
Unknown
Elevation
Unknown
Doppler factor
Unknown
Orbital elements
Apogee altitude
823.909 km
Perigee altitude
821.645 km
Semi-major axis
7,200.914 km
Eccentricity
0.00016
Inclination
98.6768°
RAAN
112.1297°
Arg. of periapsis
74.5092°
True anomaly
285.60845°
Mean anomaly
285.6258°
Eccentric anomaly
285.61713°
Mean motion
3.55191 °/min
Orbital period
101.35 mins
BSTAR
0.000036111
Loading maneuver chart data...
Computing Atmospheric mass density...
Loading historical data...
Loading historical data...
Loading historical data...
Loading historical data...
Loading historical data...
Loading historical data...
Loading historical data...
Other satellites on launch #219 in the year 2025 (2025-09-26 UTC)

Documentation

Showing up to 5 results
|